sat.trackr.live / text

‹ back to catalog

NSS-9

NORAD 33749 · 2009-008A

PAYLOAD ACTIVE UNKNOWN

§ Identity

Operator
Country
SES
Launch date
2009-02-12
Launch site
FRGUI
Launch vehicle
Mass (kg)
RCS (m²)
50.12

Purposes: comms

External: N2YO · Heavens-Above · Gunter

§ Orbital elements

Epoch: 2026-05-25T02:54:12.646944Z

Period
1,436.12 min
Inclination
1.2044°
Eccentricity
0.0002216
Mean motion
1.00270500 rev/d
Perigee alt
35,777.6 km
Apogee alt
35,796.3 km
Semi-major
42,165.1 km
B*
0.0000e+0
RAAN
82.8604°
Arg perigee
328.0901°
Mean anomaly
58.3793°
Rev number
6,329

§ Raw data

NSS-91 33749U 09008A   26145.12097971  .00000070  00000+0  00000+0 0  99922 33749   1.2044  82.8604 0002216 328.0901  58.3793  1.00270500 63291

JSON: /api/v1/satellites/33749 · /tle

For live sub-satellite position, see the globe view (requires WebGL).

§ Visibility from observer

Set your observer location to see the next 7 days of passes ≥ 10°. The values pass through the URL so the page stays shareable.

No JS? Fill the form by hand. The geolocation button needs JavaScript.